KPSPKSAN

Guest
Details From KPSP - Palm Springs Intl
To KSAN - San Diego Intl
Flight Number -
Tags decoded
Created
Modified
Stats Distance 112 nm / 208 km
Max Altitude 0 ft / 0 m
Waypoints 3
Social Downloads 1
Likes 0
Share VATSIM

Download

Looking for another format? Having issues loading an existing format? Contact us
Advertisement - Login to hide

Notes

Requested: KPSP MOMAR LYNDI4 KSAN Unmatched points: LYNDI4

Route

KPSP MOMAR KSAN

ID Type Via Altitude Latitude Longitude Leg Dist Tot Dist Heading (true) Name
O KPSP APT - 0 ft / 0 m 33.82968˚ -116.50622˚ - 0 nm - Palm Springs Intl
MOMAR FIX - 0 ft / 0 m 33.51504˚ -115.94448˚ 33 nm 33 nm 124° / 124° -
O KSAN APT - 0 ft / 0 m 32.73356˚ -117.18966˚ 78 nm 112 nm 233° / 233° San Diego Intl

Altitude Profile

Advertisement - Login to hide

KPSP

Details ICAO KPSP (PSP)
Name Palm Springs Intl
Region United States
Timezone America/Los_Angeles (UTC-8.0)
Stats Elevation 477 ft / 145 m (AMSL)
Location 33.829677° -116.506218°
Runways 2
Magnetic Variation 11.580° E

METAR

KPSP 151553Z 01003KT 10SM CLR 14/M06 A3020 RMK AO2 SLP225 T01441056

Decode

TAF

TAF KPSP 151120Z 1512/1612 VRB06KT P6SM SKC

Decode

Departure Runways

ID Width Length Bearing (true) Bearing (mag) Surface Threshold Offset Overrun Length
13L 75 ft / 23 m 4,958 ft / 1,511 m 143.52° 131.94° Asphalt 0 ft / 0 m 151 ft / 46 m
13R 151 ft / 46 m 10,012 ft / 3,052 m 143.52° 131.94° Asphalt 2,999 ft / 914 m 200 ft / 61 m
31L 151 ft / 46 m 10,012 ft / 3,052 m 323.53° 311.95° Asphalt 1,499 ft / 457 m 200 ft / 61 m
31R 75 ft / 23 m 4,958 ft / 1,511 m 323.53° 311.95° Asphalt 0 ft / 0 m 151 ft / 46 m

KSAN

Details ICAO KSAN (SAN)
Name San Diego Intl
Region United States
Timezone America/Los_Angeles (UTC-8.0)
Stats Elevation 17 ft / 5 m (AMSL)
Location 32.733556° -117.189658°
Runways 1
Magnetic Variation 11.525° E

METAR

KSAN 151551Z 00000KT 9SM FEW020 FEW250 13/01 A3014 RMK AO2 SLP205 FU FEW020 T01330011

Decode

TAF

TAF AMD KSAN 151506Z 1515/1618 VRB05KT P6SM SKC FM152000 30007KT P6SM SKC FM160100 VRB05KT P6SM FEW015 SCT250 FM161500 VRB05KT P6SM BKN015

Decode

Destination Runways

ID Width Length Bearing (true) Bearing (mag) Surface Threshold Offset Overrun Length
09 200 ft / 61 m 9,387 ft / 2,861 m 106.07° 94.55° Asphalt 699 ft / 213 m 269 ft / 82 m
27 200 ft / 61 m 9,387 ft / 2,861 m 286.08° 274.56° Asphalt 1,811 ft / 552 m 0 ft / 0 m

Approach Navaids

Runway Type Ident Frequency Range Bearing (true) Bearing (mag) Slope Elevation
09 Localiser ISAN 111.55 MHz 18 nm / 33 km 106.08° 94.55° - 17 ft / 5 m (AMSL)
09 Glidescope ISAN 111.55 MHz 10 nm / 19 km 106.08° 94.55° 3.22° 13 ft / 4 m (AMSL)
09 DME ISAN 111.55 MHz 18 nm / 33 km - - - 29 ft / 9 m (AMSL)
27 Localiser IUBR 110.90 MHz 18 nm / 33 km 286.07° 274.54° - 13 ft / 4 m (AMSL)
27 DME IUBR 110.90 MHz 18 nm / 33 km - - - 26 ft / 8 m (AMSL)

Popular Alternatives